MMS 3

Last updated on Oct. 26, 2020, 5:52 a.m. UTC

1 40484U 15011C   20298.97370370 -.00000242  00000-0  00000-0 0  9994
2 40484  30.9672 119.4719 8529146  25.0437 103.3052  0.28513806 11567
UTC
Height (km)
Latitude
Longitude
Inclination
Orbital Period
UTC large
Height (km)
Speed (km/s)
/
Latitude / Longitude
Inclination (degrees)
Orbital Period (minutes)
Azimuth
Elevation
Range (km)
Doppler Factor
iOS Compass Heading
iOS Angle

Next 30 passes for location: Hong Kong

Rise time Rise Azimuth (degrees) Set time Set Azimuth (degrees) Duration Max altitude (degrees)

No matching passes for this satellites